{"data":{"norad_id":52899,"intl_designator":"2022-065F","name":"SNUGLITE-II","alt_names":[],"object_type":"PAYLOAD","status":"ACTIVE","operator":null,"country":"SKOR","launch_date":"2022-06-21","launch_site_code":"NSC","launch_vehicle":null,"mission":null,"orbit_class":"UNKNOWN","rcs_meters":null,"size_class":null,"mass_kg":null,"dimensions":null,"purposes":[],"wikipedia_slug":null,"has_3d_model":false,"image_url":null,"decayed_at":null,"tle_current":{"epoch":"2026-05-24T22:26:22.507008Z","epoch_age_seconds":73815,"freshness":"FRESH","line1":"1 52899U 22065F   26144.93498272  .00000797  00000+0  16018-3 0  9990","line2":"2 52899  98.2174 289.8115 0008802  96.9418 263.2786 14.64295771207598","mean_motion":14.64295771,"eccentricity":0.0008802,"inclination_deg":98.2174,"raan_deg":289.8115,"arg_perigee_deg":96.9418,"mean_anomaly_deg":263.2786,"bstar":0.00016018,"rev_number":20759,"period_min":98.340788010102,"perigee_km":673.1252666778,"apogee_km":685.54924435722,"semimajor_km":7057.4742555175,"source":"CELESTRAK","updated_at":"2026-05-25T13:37:57.954850Z"}}}